Temperature
14 15 15 15 16 15 15 14 14 14 14 14 14 14 14 14 14 14 14 14 14 15 15 15 14 14 14 14 14 14 13 13 13 13 13 12 12 12 12 12 12 11 11 11
14 15 14 15 15 15 14 14 14 14 14 14 14 14 14 14 14 14 14 14 14 14 14 14 14 14 14 14 14 13 13 13 13 12 12 12 12 12 12 12 11 11 11 11
13 14 15 14 14 15 14 14 14 14 14 13 12 13 13 14 14 14 14 14 14 14 14 14 14 14 13 13 13 13 13 13 13 12 12 12 12 12 11 11 11 11 11 11
11 13 14 14 14 14 14 14 13 13 13 13 13 14 14 14 14 14 14 14 14 14 14 14 14 14 13 13 13 13 13 13 12 12 12 12 11 11 11 11 11 11 10 10
10 12 13 13 14 14 14 14 13 13 12 13 13 13 13 14 14 14 14 14 14 14 14 14 14 14 13 13 13 12 12 12 12 12 12 11 11 11 11 10 10 10 10 10
10 12 12 13 14 14 14 13 13 12 12 12 12 11 12 14 14 14 14 14 14 14 14 14 14 13 13 13 13 12 12 12 12 12 11 11 11 11 10 10 10 10 10 10
10 11 11 12 13 14 13 13 14 13 13 12 12 13 14 14 14 14 14 14 14 14 14 14 13 13 12 12 12 12 12 12 11 11 11 11 11 10 10 10 10 10 9 9
9 10 11 12 12 12 12 13 14 13 14 13 13 14 14 14 14 14 14 13 13 13 13 13 13 13 12 12 12 12 12 11 11 11 11 10 10 10 10 10 9 9 9 9
10 11 12 12 12 13 13 13 14 14 14 13 13 13 13 13 13 13 13 13 13 13 12 12 12 12 12 12 12 11 11 11 11 11 10 10 10 10 9 9 9 9 9 9
9 9 11 12 13 13 13 13 13 13 13 13 13 13 13 13 13 13 13 12 12 12 12 12 12 12 11 11 11 11 11 11 10 10 10 10 10 9 9 9 9 8 8 8
8 9 11 12 12 13 13 13 13 13 13 13 13 13 13 13 13 12 12 12 12 12 11 11 11 11 11 11 11 11 10 10 10 10 10 9 9 9 9 9 8 8 8 8
9 10 10 11 12 12 12 12 12 12 12 12 12 12 12 12 12 12 11 11 11 11 11 11 11 11 11 11 10 10 10 10 9 9 9 9 9 9 8 8 8 8 8 8
11 12 11 11 12 12 12 12 12 12 12 12 12 12 12 12 12 11 11 11 11 11 11 11 10 11 11 10 10 10 10 9 9 9 9 8 8 8 8 8 7 7 7 7
11 11 10 11 11 11 11 11 11 11 11 11 11 11 11 11 11 11 11 11 11 11 10 10 10 10 10 10 10 10 9 9 9 9 8 8 8 8 8 7 7 7 7 7
10 10 10 10 10 10 10 10 10 10 10 11 11 11 11 11 11 11 11 10 10 10 10 10 10 10 9 9 9 9 9 9 8 8 8 8 8 7 7 7 7 7 7 6
10 10 10 10 10 10 10 10 10 10 10 10 10 10 10 10 10 10 10 10 10 10 10 10 9 9 9 9 9 8 8 8 8 8 8 7 7 7 7 7 6 6 6 6
9 9 9 9 9 10 10 10 10 10 10 10 10 10 10 10 10 10 10 10 10 9 9 9 9 9 8 8 8 8 8 8 7 7 7 7 7 7 6 6 6 6 6 6
9 9 9 9 9 9 9 9 9 9 9 10 10 9 9 9 9 9 9 9 9 9 9 9 8 8 8 8 8 8 7 7 7 7 7 6 6 6 6 6 6 5 5 5
9 9 9 9 9 9 9 9 9 9 9 9 9 9 9 9 9 9 9 9 8 8 9 8 8 8 8 7 7 7 7 7 6 6 6 6 6 6 5 5 5 5 5 5
9 9 9 9 9 8 8 8 9 9 9 9 8 8 8 8 8 8 8 8 8 8 8 8 7 7 7 7 7 6 6 6 6 6 6 6 5 5 5 5 5 5 4 4
8 8 8 8 8 8 8 8 8 8 8 8 8 8 8 8 8 8 8 7 7 7 7 7 7 7 6 6 6 6 6 6 5 5 5 5 5 5 5 5 4 4 4 4
8 8 8 8 8 8 8 7 7 7 7 7 7 7 7 7 7 7 7 7 7 7 7 7 6 6 6 6 6 5 5 5 5 5 5 4 4 4 4 4 4 4 4 4
7 7 7 7 7 7 7 7 7 7 7 7 7 7 7 7 7 6 6 6 6 6 6 6 6 6 5 5 5 5 5 4 4 4 4 4 4 4 4 4 4 3 3 3
7 7 7 7 7 7 6 6 6 6 6 6 6 6 6 6 6 6 6 6 6 6 6 6 5 5 5 5 4 4 4 4 4 4 4 4 4 3 3 3 3 3 3 3
7 7 6 6 6 6 6 6 6 6 6 6 6 5 5 5 5 5 5 5 5 5 5 5 5 5 4 4 4 4 4 4 4 3 3 3 3 3 3 3 3 3 3 2
6 6 6 6 6 6 6 6 5 5 5 5 5 5 5 5 5 5 5 5 5 5 5 4 4 4 4 4 3 3 3 3 3 3 3 3 2 2 2 2 2 2 2 2
6 6 5 5 5 5 5 5 5 5 5 5 4 4 4 4 4 4 4 4 4 4 4 4 4 3 3 3 3 3 3 3 3 2 2 2 2 2 2 2 2 2 2 2
Wind_Speed
4 4 2 3 4 5 5 7 7 7 6 7 6 5 3 1 1 1 0 1 2 3 3 3 3 2 2 1 1 2 3 3 2 2 2 2 2 2 2 2 2 2 1 1
2 2 1 3 5 5 5 4 5 4 6 5 2 1 1 1 1 1 2 3 3 3 3 4 4 4 3 2 2 2 3 2 2 2 2 2 2 1 2 1 1 2 1 1
3 4 3 4 4 4 3 3 5 6 6 2 1 2 3 4 3 3 3 3 3 3 4 5 5 5 5 4 3 3 2 2 2 2 2 2 2 2 2 2 2 1 1 1
1 1 4 6 2 2 3 3 4 4 4 4 3 2 2 2 3 2 2 2 2 3 3 4 4 4 4 4 4 3 2 2 2 2 2 2 2 2 2 2 2 2 2 2
3 3 5 6 3 2 3 4 3 3 2 1 1 3 3 2 2 3 3 3 3 3 3 3 4 5 5 4 4 3 3 3 3 3 3 3 3 3 2 2 2 2 1 2
3 3 5 5 4 2 2 4 4 2 3 2 2 0 5 4 3 3 2 2 1 1 1 2 3 4 5 4 4 5 5 4 3 3 4 4 4 3 2 2 2 2 1 1
4 4 6 6 5 2 3 6 4 3 3 3 4 5 4 2 2 2 2 2 1 1 1 2 3 4 5 4 5 5 4 3 3 3 4 4 3 2 2 2 2 2 1 1
4 4 7 3 1 3 5 4 2 2 2 3 4 3 3 2 2 2 2 2 1 1 1 1 2 4 4 5 5 3 3 3 3 2 2 2 3 2 3 3 3 2 1 1
6 6 4 2 4 4 3 3 3 3 3 3 3 4 4 3 3 3 3 2 1 1 2 2 2 4 5 5 4 4 3 3 3 2 2 3 4 3 3 3 3 2 2 2
3 5 5 4 4 3 3 4 4 4 3 3 4 5 4 4 3 3 3 2 1 1 2 3 3 3 4 4 3 4 4 4 3 3 2 2 3 3 3 3 3 3 3 3
4 6 5 4 4 4 4 4 3 3 3 4 4 4 4 4 4 3 3 2 2 2 3 4 3 3 3 3 4 4 4 4 3 3 3 2 2 3 4 4 5 5 4 4
7 6 4 6 5 3 4 5 5 4 4 4 4 5 4 4 3 3 3 3 3 3 3 4 3 3 3 3 4 5 4 4 3 3 3 2 2 1 2 3 4 4 4 3
7 6 5 6 6 5 5 6 5 5 5 5 4 4 4 4 3 3 3 3 4 4 4 4 3 3 3 3 4 5 5 4 3 3 3 3 3 3 2 2 2 3 3 3
5 3 5 5 6 6 5 5 4 4 4 4 4 3 3 3 2 3 4 5 4 4 4 3 3 4 4 3 4 5 5 5 4 4 4 4 4 3 3 3 2 2 2 2
6 6 7 6 5 5 4 3 3 4 3 3 3 3 3 3 4 4 4 3 3 3 3 3 3 4 3 3 4 4 4 4 4 4 4 3 3 3 3 3 3 2 1 1
5 4 5 5 6 6 4 4 4 5 4 4 3 3 4 4 3 3 3 3 3 4 4 4 4 4 3 3 3 3 4 6 5 4 4 3 3 3 3 3 3 3 2 2
4 5 5 6 6 6 6 6 6 6 5 5 5 4 3 2 2 3 3 3 3 4 4 4 5 4 3 4 4 3 3 4 5 3 3 4 3 4 4 4 4 3 3 3
7 7 7 6 6 5 5 4 4 5 5 5 4 3 3 4 4 5 4 2 2 2 3 4 3 3 3 3 3 3 3 3 3 4 3 3 3 3 3 3 4 4 3 2
4 5 5 5 5 5 4 4 4 4 3 3 3 4 4 4 4 4 2 2 3 4 4 3 3 2 3 4 3 3 3 3 3 3 3 4 4 3 3 4 4 4 4 3
3 3 3 3 3 3 3 3 3 3 2 2 3 3 3 4 3 3 3 3 4 4 4 3 3 3 3 4 3 2 3 3 3 3 3 3 4 4 4 4 4 4 4 4
3 3 2 2 3 3 3 2 2 3 3 2 3 4 4 4 3 3 3 3 4 3 3 4 3 3 3 3 3 3 3 3 3 4 4 4 4 4 4 4 4 4 4 4
3 3 3 3 2 2 3 2 2 2 2 2 2 2 2 2 2 3 4 4 4 3 2 2 3 3 3 3 2 3 3 3 3 3 4 4 4 4 4 4 4 4 4 4
3 3 3 3 3 3 3 2 2 2 2 2 3 3 3 3 3 3 4 3 2 3 2 3 4 4 4 2 2 3 3 4 4 4 4 4 4 4 4 4 4 4 4 4
3 3 3 2 1 1 2 3 3 2 2 2 2 2 2 2 2 3 3 3 3 3 3 3 4 4 3 2 2 3 3 4 4 4 4 3 3 3 4 4 4 4 4 4
3 3 2 1 2 2 3 2 2 1 1 1 2 2 2 2 2 2 2 2 2 2 2 3 4 4 2 2 3 3 3 4 4 3 3 3 3 3 4 4 4 4 4 4
3 3 3 3 3 3 2 1 1 1 1 1 2 2 2 1 1 1 1 1 2 2 2 2 2 2 2 2 3 3 3 3 4 3 4 4 4 4 4 4 5 4 4 5
3 2 2 2 2 2 2 1 2 2 2 2 2 2 2 1 1 1 1 1 1 1 1 1 1 1 2 2 2 2 2 2 3 3 3 3 4 4 4 5 4 4 4 5
Wind_Direction
240 255 234 239 238 207 198 195 202 228 228 257 258 252 250 240 177 132 264 252 225 218 212 194 183 186 185 192 184 159 152 162 199 207 189 178 170 178 174 164 165 165 158 165
285 295 267 273 261 232 223 213 220 240 259 267 264 187 256 260 214 241 262 257 245 232 209 199 198 196 185 183 184 165 162 182 200 182 171 171 173 163 151 153 161 153 161 163
254 297 354 284 252 217 209 216 193 218 239 230 228 218 226 228 229 238 256 264 246 231 220 212 204 196 192 192 169 155 168 179 183 177 176 188 179 153 167 178 162 166 184 174
201 43 240 245 274 202 196 238 220 234 242 205 213 235 245 218 212 245 270 271 262 237 229 219 200 187 179 167 166 165 166 184 199 183 185 187 167 177 195 184 180 194 203 201
147 214 270 294 279 195 203 267 244 220 229 198 74 31 335 284 231 247 250 253 248 236 221 204 189 179 164 165 171 174 185 199 208 194 188 184 187 202 204 188 194 201 197 189
150 189 240 261 293 294 143 275 283 226 218 194 107 347 274 277 260 266 272 262 263 269 214 191 200 173 162 175 182 197 205 208 206 194 190 199 206 208 200 187 200 188 191 196
181 216 259 269 301 68 157 254 285 229 214 187 200 222 251 271 273 266 269 275 267 212 199 218 192 167 174 187 207 211 201 195 192 193 197 202 198 187 175 173 161 164 184 220
165 198 251 285 98 172 227 271 279 249 222 206 235 264 272 263 265 268 271 287 266 202 227 219 174 168 191 212 216 195 178 183 195 194 195 185 169 176 170 166 164 176 181 250
190 212 247 245 216 237 224 246 256 243 252 218 239 260 267 265 265 268 254 254 251 221 229 231 202 182 202 220 198 172 172 192 205 196 191 179 171 174 173 173 177 193 193 222
243 262 261 270 267 277 257 249 257 248 238 223 238 251 256 260 263 266 257 246 248 233 237 251 243 222 219 216 182 173 182 193 196 194 196 181 179 180 182 189 193 200 204 223
251 273 298 288 276 284 292 290 288 284 261 239 229 244 243 249 252 248 246 239 220 221 233 249 256 249 237 205 172 176 186 193 194 193 192 197 196 198 198 206 202 203 211 207
236 243 236 269 284 287 281 280 274 272 275 258 232 234 231 237 241 235 238 238 232 236 240 246 243 243 238 205 181 177 185 193 197 194 192 195 200 240 231 218 227 225 220 212
237 254 243 261 279 274 266 273 274 265 253 256 249 228 221 231 233 229 237 240 238 242 246 243 241 244 237 206 188 185 192 199 200 196 196 197 196 200 228 272 247 238 232 221
248 251 267 267 270 276 276 275 277 277 269 256 249 238 224 222 229 234 242 247 244 242 246 237 234 242 234 204 190 193 194 200 199 201 198 198 203 207 206 208 227 267 263 234
256 241 246 262 270 278 280 278 278 278 279 278 253 232 214 214 231 245 252 252 246 241 247 237 234 248 238 206 196 197 197 201 200 199 197 197 200 202 204 205 211 225 276 282
267 270 260 260 263 269 268 258 255 261 262 261 262 251 236 229 240 253 254 226 212 232 240 234 238 243 226 205 202 203 208 213 204 194 192 194 196 200 204 206 209 211 219 227
245 263 264 267 265 265 258 251 242 246 250 247 247 248 244 235 248 255 255 243 228 232 233 231 238 238 219 204 199 205 208 209 208 201 195 199 203 209 209 206 212 218 228 223
237 242 245 244 251 260 267 263 255 250 246 248 247 235 224 218 231 243 251 261 268 278 265 246 232 226 218 209 207 205 204 206 201 200 202 203 208 212 210 212 216 219 234 231
260 256 258 261 255 248 253 259 255 254 253 234 216 227 233 233 233 235 229 222 236 259 270 265 249 228 218 218 218 204 199 201 206 208 207 209 210 205 206 212 217 218 215 212
275 277 276 279 273 252 254 265 266 266 257 232 223 234 246 247 232 219 213 226 237 243 247 256 243 224 219 217 216 200 197 201 207 209 209 208 209 212 211 213 216 214 214 214
286 291 288 283 284 275 258 256 256 260 260 230 221 232 242 251 238 215 214 254 271 255 242 250 240 227 220 220 213 199 199 203 209 214 213 215 216 216 215 213 215 217 215 216
283 282 282 277 267 279 281 271 265 262 259 254 250 244 241 253 255 250 241 241 250 248 241 233 230 233 236 229 199 200 207 213 219 219 215 213 213 217 217 215 216 218 216 215
266 263 263 260 256 270 295 299 285 264 250 246 244 240 241 246 235 232 264 264 246 247 244 233 242 243 243 214 201 210 219 223 224 221 220 219 216 216 218 219 219 218 216 216
268 268 267 269 267 278 285 284 284 278 269 265 258 246 239 254 276 263 251 266 272 267 249 248 253 245 235 208 211 222 228 230 228 224 220 219 219 219 221 219 218 219 219 220
264 265 271 276 278 271 264 284 312 313 313 306 304 294 273 245 245 264 270 268 279 290 276 269 264 256 228 217 221 230 235 238 237 227 217 216 220 224 225 221 220 219 217 222
262 257 255 252 253 260 258 249 257 273 276 300 311 310 310 303 275 276 280 278 278 297 299 287 266 246 229 231 238 243 246 250 249 239 227 223 225 225 226 225 222 221 221 224
270 268 273 285 283 266 260 244 232 251 251 245 278 294 295 293 293 298 304 307 303 300 299 295 278 256 253 254 257 259 255 249 242 234 230 229 228 229 228 229 230 226 223 224
Height
1506 1504 1503 1503 1502 1504 1507 1509 1514 1509 1507 1501 1498 1497 1497 1498 1498 1498 1498 1499 1499 1499 1500 1501 1502 1503 1504 1505 1506 1507 1508 1508 1509 1509 1510 1510 1510 1510 1511 1511 1512 1512 1512 1512
1506 1502 1503 1503 1501 1501 1502 1503 1504 1503 1503 1497 1496 1496 1496 1496 1497 1497 1497 1497 1497 1497 1498 1498 1499 1501 1502 1503 1504 1505 1506 1506 1506 1507 1507 1507 1508 1508 1508 1509 1509 1510 1510 1510
1513 1506 1502 1507 1500 1498 1499 1498 1499 1501 1498 1495 1495 1494 1494 1494 1495 1495 1495 1495 1495 1496 1496 1496 1497 1499 1500 1501 1501 1502 1503 1504 1504 1505 1505 1505 1505 1505 1506 1506 1507 1507 1507 1507
1514 1510 1514 1504 1493 1493 1494 1494 1494 1493 1492 1492 1492 1492 1492 1492 1493 1493 1494 1494 1494 1494 1494 1495 1495 1497 1498 1499 1499 1500 1500 1501 1502 1502 1502 1502 1503 1503 1503 1503 1504 1504 1504 1505
1517 1515 1509 1499 1493 1493 1494 1493 1490 1490 1490 1490 1490 1490 1491 1491 1491 1492 1492 1492 1492 1492 1492 1493 1493 1494 1495 1496 1497 1497 1498 1498 1499 1499 1499 1500 1500 1500 1500 1501 1501 1501 1502 1502
1515 1513 1512 1499 1490 1489 1491 1494 1488 1487 1488 1489 1490 1494 1491 1489 1489 1489 1490 1490 1490 1490 1490 1490 1491 1491 1492 1493 1493 1494 1495 1496 1496 1496 1497 1497 1497 1497 1498 1498 1498 1499 1499 1499
1513 1512 1505 1494 1490 1489 1499 1496 1487 1485 1486 1486 1487 1488 1488 1487 1487 1487 1487 1487 1487 1487 1488 1488 1488 1489 1489 1490 1491 1492 1493 1493 1494 1494 1494 1494 1494 1494 1495 1495 1496 1496 1496 1496
1511 1512 1506 1490 1490 1493 1492 1487 1486 1485 1484 1484 1484 1485 1484 1485 1484 1484 1484 1484 1485 1485 1485 1486 1486 1486 1486 1487 1488 1489 1490 1490 1490 1491 1491 1491 1491 1491 1491 1492 1492 1492 1493 1493
1500 1499 1491 1488 1488 1487 1487 1486 1484 1483 1483 1483 1483 1482 1482 1482 1482 1481 1481 1482 1482 1482 1482 1483 1483 1484 1484 1484 1485 1486 1486 1487 1487 1487 1487 1488 1488 1488 1488 1489 1489 1489 1489 1489
1495 1491 1487 1486 1486 1485 1484 1483 1482 1481 1481 1480 1480 1480 1480 1480 1479 1479 1479 1479 1480 1480 1480 1480 1481 1481 1481 1481 1482 1482 1483 1483 1484 1484 1484 1484 1484 1484 1484 1485 1485 1485 1486 1486
1492 1488 1485 1483 1483 1483 1482 1481 1479 1478 1478 1478 1477 1477 1477 1476 1476 1476 1476 1476 1476 1477 1477 1477 1478 1478 1478 1478 1478 1478 1479 1479 1480 1480 1480 1480 1481 1481 1481 1481 1482 1482 1482 1483
1488 1483 1483 1481 1480 1480 1479 1478 1477 1476 1475 1475 1475 1474 1474 1473 1473 1473 1473 1473 1473 1474 1474 1474 1474 1475 1475 1475 1475 1475 1475 1475 1475 1476 1476 1477 1477 1477 1478 1478 1479 1479 1479 1480
1480 1479 1479 1478 1477 1477 1476 1475 1474 1473 1471 1471 1471 1470 1470 1470 1470 1470 1470 1470 1470 1470 1470 1470 1470 1470 1471 1471 1471 1471 1471 1471 1472 1472 1472 1473 1473 1473 1473 1474 1475 1475 1475 1475
1476 1476 1475 1474 1473 1473 1472 1471 1470 1469 1468 1467 1467 1467 1466 1466 1466 1466 1466 1467 1467 1467 1466 1466 1466 1467 1467 1467 1467 1467 1468 1468 1468 1468 1468 1469 1469 1469 1469 1469 1469 1470 1471 1471
1472 1472 1471 1470 1469 1469 1468 1467 1466 1465 1464 1464 1463 1463 1463 1462 1462 1462 1463 1463 1463 1463 1463 1463 1463 1463 1463 1463 1463 1463 1463 1463 1464 1464 1464 1465 1465 1465 1465 1465 1466 1466 1467 1467
1467 1467 1467 1466 1464 1464 1463 1462 1461 1461 1460 1460 1460 1460 1459 1459 1459 1459 1460 1460 1459 1459 1459 1459 1459 1459 1459 1459 1459 1459 1459 1459 1460 1460 1460 1460 1461 1461 1461 1461 1462 1462 1462 1463
1464 1463 1462 1461 1460 1459 1459 1458 1458 1457 1457 1457 1456 1456 1456 1456 1456 1456 1456 1456 1456 1455 1455 1455 1455 1455 1455 1455 1455 1455 1455 1455 1455 1456 1456 1456 1456 1457 1457 1457 1457 1457 1458 1459
1459 1459 1459 1458 1457 1456 1455 1455 1454 1454 1453 1453 1454 1453 1453 1452 1452 1452 1452 1452 1452 1451 1451 1451 1451 1451 1451 1451 1451 1451 1451 1451 1451 1451 1451 1452 1452 1453 1453 1453 1453 1453 1453 1454
1455 1455 1454 1454 1453 1453 1452 1451 1451 1451 1450 1450 1450 1449 1449 1449 1449 1449 1449 1448 1447 1447 1447 1448 1448 1447 1447 1447 1447 1447 1447 1447 1447 1447 1447 1448 1448 1448 1448 1448 1448 1449 1449 1449
1452 1452 1451 1450 1450 1449 1449 1448 1448 1447 1447 1447 1447 1446 1446 1445 1445 1445 1445 1444 1444 1444 1444 1444 1444 1443 1443 1443 1443 1443 1443 1443 1443 1442 1443 1443 1443 1443 1443 1444 1444 1444 1444 1444
1449 1448 1447 1446 1446 1446 1446 1445 1445 1444 1444 1444 1443 1443 1442 1442 1442 1441 1441 1440 1440 1440 1440 1440 1440 1439 1439 1439 1439 1439 1438 1438 1438 1438 1438 1438 1438 1438 1438 1438 1439 1439 1439 1439
1446 1445 1444 1443 1443 1442 1442 1442 1441 1441 1441 1440 1440 1440 1439 1439 1438 1438 1437 1437 1437 1436 1436 1435 1435 1435 1435 1435 1434 1434 1434 1434 1434 1433 1433 1433 1434 1434 1434 1434 1434 1434 1434 1434
1443 1442 1441 1440 1440 1439 1439 1438 1438 1437 1437 1437 1437 1436 1436 1435 1434 1434 1433 1433 1433 1433 1432 1432 1431 1431 1431 1430 1430 1430 1429 1429 1429 1429 1429 1429 1429 1429 1429 1429 1428 1428 1429 1429
1440 1439 1438 1437 1437 1436 1435 1435 1435 1434 1434 1433 1433 1433 1432 1431 1431 1430 1430 1430 1429 1429 1428 1428 1428 1427 1427 1426 1426 1425 1425 1425 1424 1424 1424 1424 1424 1424 1424 1423 1423 1423 1423 1424
1438 1437 1436 1435 1434 1433 1432 1432 1431 1431 1431 1430 1430 1429 1429 1428 1427 1427 1426 1426 1425 1425 1424 1424 1424 1423 1422 1422 1421 1421 1420 1420 1420 1420 1419 1419 1419 1419 1418 1418 1418 1418 1418 1418
1434 1434 1433 1432 1432 1431 1430 1429 1428 1428 1428 1427 1426 1426 1425 1425 1424 1423 1423 1422 1421 1421 1420 1419 1419 1418 1418 1417 1417 1416 1416 1415 1415 1414 1414 1414 1414 1413 1413 1413 1413 1413 1413 1413
1431 1431 1430 1429 1429 1428 1427 1426 1426 1425 1425 1424 1423 1423 1422 1421 1421 1420 1419 1418 1417 1416 1416 1415 1415 1414 1414 1413 1412 1412 1411 1410 1410 1409 1409 1409 1408 1408 1408 1408 1408 1408 1408 1408